Time,TemperatureF,DewpointF,PressureIn,WindDirection,WindDirectionDegrees,WindSpeedMPH,WindSpeedGustMPH,Humidity,HourlyPrecipIn,Conditions,Clouds,dailyrainin,SoftwareType,DateUTC
2013-01-17 00:02:00,23.0,8.0,29.98,WNW,286,2.0,6.0,53,-99.99,,,-99.99,,2013-01-17 06:02:00,
2013-01-17 00:12:00,23.0,8.0,29.98,WNW,286,2.0,6.0,53,-99.99,,,-99.99,,2013-01-17 06:12:00,
2013-01-17 00:22:00,23.0,8.0,29.98,WNW,286,2.0,6.0,53,-99.99,,,-99.99,,2013-01-17 06:22:00,
2013-01-17 00:32:00,22.0,8.0,30.00,WNW,285,1.0,2.0,53,-99.99,,,-99.99,,2013-01-17 06:32:00,
2013-01-17 00:42:00,22.0,8.0,30.00,WNW,285,1.0,2.0,53,-99.99,,,-99.99,,2013-01-17 06:42:00,
2013-01-17 00:53:00,22.0,8.0,30.00,WNW,285,1.0,2.0,53,-99.99,,,-99.99,,2013-01-17 06:53:00,
2013-01-17 01:02:00,21.0,7.0,30.01,West,280,2.0,4.0,54,-99.99,,,-99.99,,2013-01-17 07:02:00,
2013-01-17 01:12:00,21.0,7.0,30.01,West,280,2.0,4.0,54,-99.99,,,-99.99,,2013-01-17 07:12:00,
2013-01-17 01:22:00,21.0,7.0,30.02,NNW,342,0.0,3.0,55,-99.99,,,-99.99,,2013-01-17 07:22:00,
2013-01-17 01:32:00,21.0,7.0,30.02,NNW,342,0.0,3.0,55,-99.99,,,-99.99,,2013-01-17 07:32:00,
2013-01-17 01:42:00,21.0,7.0,30.02,NNW,342,0.0,3.0,55,-99.99,,,-99.99,,2013-01-17 07:42:00,
2013-01-17 01:52:00,20.0,6.0,30.03,WNW,297,3.0,4.0,54,-99.99,,,-99.99,,2013-01-17 07:52:00,
2013-01-17 02:02:00,20.0,6.0,30.05,North,9,2.0,4.0,54,-99.99,,,-99.99,,2013-01-17 08:02:00,
2013-01-17 02:12:00,20.0,6.0,30.05,North,9,2.0,4.0,54,-99.99,,,-99.99,,2013-01-17 08:12:00,
2013-01-17 02:22:00,20.0,6.0,30.05,North,9,2.0,4.0,54,-99.99,,,-99.99,,2013-01-17 08:22:00,
2013-01-17 02:32:00,19.0,6.0,30.05,NNE,18,0.0,2.0,57,-99.99,,,-99.99,,2013-01-17 08:32:00,
2013-01-17 02:43:00,19.0,6.0,30.05,NNE,18,0.0,2.0,57,-99.99,,,-99.99,,2013-01-17 08:43:00,
2013-01-17 02:53:00,19.0,6.0,30.06,West,270,1.0,4.0,55,-99.99,,,-99.99,,2013-01-17 08:53:00,
2013-01-17 03:02:00,19.0,6.0,30.06,NW,310,2.0,3.0,55,-99.99,,,-99.99,,2013-01-17 09:02:00,
2013-01-17 03:12:00,19.0,6.0,30.06,NW,310,2.0,3.0,55,-99.99,,,-99.99,,2013-01-17 09:12:00,
2013-01-17 03:22:00,19.0,6.0,30.06,NW,310,2.0,3.0,55,-99.99,,,-99.99,,2013-01-17 09:22:00,
2013-01-17 03:32:00,19.0,6.0,30.06,NW,310,2.0,3.0,55,-99.99,,,-99.99,,2013-01-17 09:32:00,
2013-01-17 05:22:00,17.0,4.0,30.09,North,351,1.0,3.0,55,-99.99,,,-99.99,,2013-01-17 11:22:00,
2013-01-17 05:33:00,16.0,3.0,30.09,NW,312,1.0,2.0,55,-99.99,,,-99.99,,2013-01-17 11:33:00,
2013-01-17 05:42:00,16.0,3.0,30.09,NW,312,1.0,2.0,55,-99.99,,,-99.99,,2013-01-17 11:42:00,
2013-01-17 05:52:00,16.0,3.0,30.09,NW,312,1.0,2.0,55,-99.99,,,-99.99,,2013-01-17 11:52:00,
2013-01-17 06:02:00,16.0,3.0,30.11,North,357,1.0,4.0,55,-99.99,,,-99.99,,2013-01-17 12:02:00,
2013-01-17 06:12:00,16.0,3.0,30.11,North,357,1.0,4.0,55,-99.99,,,-99.99,,2013-01-17 12:12:00,
2013-01-17 06:23:00,16.0,3.0,30.12,SW,229,1.0,2.0,55,-99.99,,,-99.99,,2013-01-17 12:23:00,
2013-01-17 06:33:00,16.0,3.0,30.12,West,260,2.0,3.0,55,-99.99,,,-99.99,,2013-01-17 12:33:00,
2013-01-17 06:42:00,16.0,3.0,30.12,West,260,2.0,3.0,55,-99.99,,,-99.99,,2013-01-17 12:42:00,
2013-01-17 06:52:00,16.0,3.0,30.12,West,260,2.0,3.0,55,-99.99,,,-99.99,,2013-01-17 12:52:00,
2013-01-17 07:03:00,15.0,2.0,30.14,WNW,297,4.0,4.0,55,-99.99,,,-99.99,,2013-01-17 13:03:00,
2013-01-17 07:12:00,15.0,2.0,30.14,WNW,297,4.0,4.0,55,-99.99,,,-99.99,,2013-01-17 13:12:00,
2013-01-17 07:22:00,15.0,2.0,30.14,WNW,297,4.0,4.0,55,-99.99,,,-99.99,,2013-01-17 13:22:00,
2013-01-17 07:33:00,15.0,2.0,30.14,NE,45,0.0,3.0,55,-99.99,,,-99.99,,2013-01-17 13:33:00,
2013-01-17 07:43:00,15.0,2.0,30.14,NE,45,0.0,3.0,55,-99.99,,,-99.99,,2013-01-17 13:43:00,
2013-01-17 07:53:00,15.0,2.0,30.14,NE,45,0.0,3.0,55,-99.99,,,-99.99,,2013-01-17 13:53:00,
2013-01-17 08:03:00,15.0,2.0,30.14,NE,45,0.0,3.0,55,-99.99,,,-99.99,,2013-01-17 14:03:00,
2013-01-17 08:23:00,14.0,2.0,30.16,West,281,1.0,3.0,57,-99.99,,,-99.99,,2013-01-17 14:23:00,
2013-01-17 08:33:00,14.0,1.0,30.16,West,274,4.0,5.0,56,-99.99,,,-99.99,,2013-01-17 14:33:00,
2013-01-17 08:43:00,14.0,1.0,30.16,West,274,4.0,5.0,56,-99.99,,,-99.99,,2013-01-17 14:43:00,
2013-01-17 08:53:00,15.0,1.0,30.17,West,265,2.0,6.0,54,-99.99,,,-99.99,,2013-01-17 14:53:00,
2013-01-17 09:03:00,15.0,1.0,30.19,NW,308,4.0,6.0,52,-99.99,,,-99.99,,2013-01-17 15:03:00,
2013-01-17 09:12:00,15.0,1.0,30.19,NW,308,4.0,6.0,52,-99.99,,,-99.99,,2013-01-17 15:12:00,
2013-01-17 09:22:00,14.0,0.0,30.19,North,6,1.0,6.0,52,-99.99,,,-99.99,,2013-01-17 15:22:00,
2013-01-17 09:33:00,15.0,0.0,30.19,NW,312,4.0,5.0,51,-99.99,,,-99.99,,2013-01-17 15:33:00,
2013-01-17 09:43:00,15.0,0.0,30.19,NW,312,4.0,5.0,51,-99.99,,,-99.99,,2013-01-17 15:43:00,
2013-01-17 09:53:00,15.0,0.0,30.19,NW,305,1.0,5.0,50,-99.99,,,-99.99,,2013-01-17 15:53:00,
2013-01-17 10:02:00,16.0,1.0,30.20,NNW,328,2.0,4.0,50,-99.99,,,-99.99,,2013-01-17 16:02:00,
2013-01-17 10:12:00,16.0,1.0,30.20,NNW,328,2.0,4.0,50,-99.99,,,-99.99,,2013-01-17 16:12:00,
2013-01-17 10:22:00,17.0,1.0,30.21,NNW,335,0.0,4.0,49,-99.99,,,-99.99,,2013-01-17 16:22:00,
2013-01-17 10:33:00,17.0,0.0,30.20,WNW,283,4.0,4.0,46,-99.99,,,-99.99,,2013-01-17 16:33:00,
2013-01-17 10:43:00,17.0,0.0,30.20,WNW,283,4.0,4.0,46,-99.99,,,-99.99,,2013-01-17 16:43:00,
2013-01-17 10:52:00,17.0,0.0,30.20,WNW,283,4.0,4.0,46,-99.99,,,-99.99,,2013-01-17 16:52:00,
2013-01-17 11:03:00,19.0,1.0,30.21,NNW,348,2.0,8.0,44,-99.99,,,-99.99,,2013-01-17 17:03:00,
2013-01-17 11:13:00,19.0,1.0,30.21,NNW,348,2.0,8.0,44,-99.99,,,-99.99,,2013-01-17 17:13:00,
2013-01-17 11:23:00,20.0,3.0,30.20,ENE,67,1.0,3.0,47,-99.99,,,-99.99,,2013-01-17 17:23:00,
2013-01-17 11:33:00,21.0,2.0,30.20,NE,36,0.0,3.0,43,-99.99,,,-99.99,,2013-01-17 17:33:00,
2013-01-17 11:43:00,21.0,2.0,30.20,NE,36,0.0,3.0,43,-99.99,,,-99.99,,2013-01-17 17:43:00,
2013-01-17 11:53:00,21.0,2.0,30.19,SE,135,3.0,4.0,42,-99.99,,,-99.99,,2013-01-17 17:53:00,
2013-01-17 12:03:00,21.0,2.0,30.19,WSW,252,3.0,6.0,42,-99.99,,,-99.99,,2013-01-17 18:03:00,
2013-01-17 12:12:00,21.0,2.0,30.19,WSW,252,3.0,6.0,42,-99.99,,,-99.99,,2013-01-17 18:12:00,
2013-01-17 12:22:00,22.0,3.0,30.18,West,272,7.0,8.0,43,-99.99,,,-99.99,,2013-01-17 18:22:00,
2013-01-17 12:33:00,22.0,3.0,30.18,WSW,240,1.0,5.0,44,-99.99,,,-99.99,,2013-01-17 18:33:00,
2013-01-17 12:43:00,22.0,3.0,30.18,WSW,240,1.0,5.0,44,-99.99,,,-99.99,,2013-01-17 18:43:00,
2013-01-17 12:53:00,22.0,3.0,30.18,WSW,240,1.0,5.0,44,-99.99,,,-99.99,,2013-01-17 18:53:00,
2013-01-17 13:03:00,23.0,4.0,30.19,WNW,292,4.0,10.0,43,-99.99,,,-99.99,,2013-01-17 19:03:00,
2013-01-17 13:12:00,23.0,4.0,30.19,WNW,292,4.0,10.0,43,-99.99,,,-99.99,,2013-01-17 19:12:00,
2013-01-17 13:23:00,23.0,3.0,30.18,WSW,252,7.0,7.0,42,-99.99,,,-99.99,,2013-01-17 19:23:00,
2013-01-17 13:33:00,23.0,4.0,30.17,West,263,10.0,10.0,44,-99.99,,,-99.99,,2013-01-17 19:33:00,
2013-01-17 13:42:00,23.0,4.0,30.17,West,263,10.0,10.0,44,-99.99,,,-99.99,,2013-01-17 19:42:00,
2013-01-17 13:53:00,23.0,4.0,30.17,WNW,297,4.0,7.0,44,-99.99,,,-99.99,,2013-01-17 19:53:00,
2013-01-17 14:03:00,24.0,5.0,30.17,NNW,342,2.0,7.0,43,-99.99,,,-99.99,,2013-01-17 20:03:00,
2013-01-17 14:12:00,24.0,5.0,30.17,NNW,342,2.0,7.0,43,-99.99,,,-99.99,,2013-01-17 20:12:00,
2013-01-17 14:23:00,24.0,5.0,30.17,NNW,342,2.0,7.0,43,-99.99,,,-99.99,,2013-01-17 20:23:00,
2013-01-17 14:33:00,23.0,5.0,30.17,WSW,256,4.0,7.0,46,-99.99,,,-99.99,,2013-01-17 20:33:00,
2013-01-17 14:43:00,23.0,5.0,30.17,WSW,256,4.0,7.0,46,-99.99,,,-99.99,,2013-01-17 20:43:00,
2013-01-17 14:54:00,23.0,5.0,30.17,WNW,299,0.0,6.0,46,-99.99,,,-99.99,,2013-01-17 20:54:00,
2013-01-17 15:03:00,23.0,5.0,30.17,NW,315,0.0,6.0,46,-99.99,,,-99.99,,2013-01-17 21:03:00,
2013-01-17 15:12:00,23.0,5.0,30.17,NW,315,0.0,6.0,46,-99.99,,,-99.99,,2013-01-17 21:12:00,
2013-01-17 15:23:00,23.0,5.0,30.17,NW,315,0.0,6.0,46,-99.99,,,-99.99,,2013-01-17 21:23:00,
2013-01-17 15:33:00,23.0,6.0,30.17,WNW,299,0.0,3.0,47,-99.99,,,-99.99,,2013-01-17 21:33:00,
2013-01-17 15:43:00,23.0,6.0,30.17,WNW,299,0.0,3.0,47,-99.99,,,-99.99,,2013-01-17 21:43:00,
2013-01-17 15:53:00,22.0,5.0,30.17,WNW,301,2.0,4.0,48,-99.99,,,-99.99,,2013-01-17 21:53:00,
2013-01-17 16:03:00,22.0,6.0,30.17,WNW,283,3.0,3.0,49,-99.99,,,-99.99,,2013-01-17 22:03:00,
2013-01-17 16:12:00,22.0,6.0,30.17,WNW,283,3.0,3.0,49,-99.99,,,-99.99,,2013-01-17 22:12:00,
2013-01-17 16:23:00,22.0,5.0,30.18,WSW,258,1.0,4.0,48,-99.99,,,-99.99,,2013-01-17 22:23:00,
2013-01-17 16:33:00,22.0,6.0,30.18,NNW,330,2.0,3.0,49,-99.99,,,-99.99,,2013-01-17 22:33:00,
2013-01-17 16:42:00,22.0,6.0,30.18,NNW,330,2.0,3.0,49,-99.99,,,-99.99,,2013-01-17 22:42:00,
2013-01-17 16:52:00,21.0,5.0,30.18,North,0,0.0,4.0,50,-99.99,,,-99.99,,2013-01-17 22:52:00,
2013-01-17 17:03:00,21.0,6.0,30.19,WNW,297,1.0,3.0,52,-99.99,,,-99.99,,2013-01-17 23:03:00,
2013-01-17 17:12:00,21.0,6.0,30.19,WNW,297,1.0,3.0,52,-99.99,,,-99.99,,2013-01-17 23:12:00,
2013-01-17 17:22:00,21.0,6.0,30.20,NW,312,1.0,2.0,52,-99.99,,,-99.99,,2013-01-17 23:22:00,
2013-01-17 17:33:00,20.0,5.0,30.20,West,272,1.0,3.0,52,-99.99,,,-99.99,,2013-01-17 23:33:00,
2013-01-17 17:42:00,20.0,5.0,30.20,West,272,1.0,3.0,52,-99.99,,,-99.99,,2013-01-17 23:42:00,
2013-01-17 17:52:00,20.0,5.0,30.20,West,272,1.0,3.0,52,-99.99,,,-99.99,,2013-01-17 23:52:00,
2013-01-17 18:02:00,19.0,5.0,30.20,NE,45,0.0,3.0,53,-99.99,,,-99.99,,2013-01-18 00:02:00,
2013-01-17 18:12:00,19.0,5.0,30.20,NE,45,0.0,3.0,53,-99.99,,,-99.99,,2013-01-18 00:12:00,
2013-01-17 18:23:00,19.0,5.0,30.20,South,182,0.0,2.0,53,-99.99,,,-99.99,,2013-01-18 00:23:00,
2013-01-17 18:32:00,19.0,5.0,30.20,South,182,0.0,2.0,53,-99.99,,,-99.99,,2013-01-18 00:32:00,
2013-01-17 18:42:00,18.0,5.0,30.20,SW,225,0.0,1.0,55,-99.99,,,-99.99,,2013-01-18 00:42:00,
2013-01-17 18:52:00,18.0,5.0,30.21,SW,225,0.0,0.0,55,-99.99,,,-99.99,,2013-01-18 00:52:00,
2013-01-17 19:03:00,18.0,5.0,30.21,West,270,0.0,1.0,55,-99.99,,,-99.99,,2013-01-18 01:03:00,
2013-01-17 19:12:00,18.0,5.0,30.21,West,270,0.0,1.0,55,-99.99,,,-99.99,,2013-01-18 01:12:00,
2013-01-17 19:22:00,17.0,4.0,30.22,West,270,0.0,1.0,56,-99.99,,,-99.99,,2013-01-18 01:22:00,
2013-01-17 19:33:00,17.0,4.0,30.21,WSW,252,1.0,4.0,55,-99.99,,,-99.99,,2013-01-18 01:33:00,
2013-01-17 19:43:00,17.0,4.0,30.21,WSW,252,1.0,4.0,55,-99.99,,,-99.99,,2013-01-18 01:43:00,
2013-01-17 19:52:00,17.0,4.0,30.21,West,270,0.0,1.0,56,-99.99,,,-99.99,,2013-01-18 01:52:00,
2013-01-17 20:02:00,17.0,4.0,30.21,West,270,0.0,1.0,56,-99.99,,,-99.99,,2013-01-18 02:02:00,
2013-01-17 20:12:00,17.0,4.0,30.21,West,270,0.0,1.0,56,-99.99,,,-99.99,,2013-01-18 02:12:00,
2013-01-17 20:22:00,17.0,4.0,30.21,West,270,0.0,1.0,56,-99.99,,,-99.99,,2013-01-18 02:22:00,
2013-01-17 20:33:00,16.0,3.0,30.22,NE,45,0.0,1.0,57,-99.99,,,-99.99,,2013-01-18 02:33:00,
2013-01-17 20:43:00,16.0,3.0,30.22,NE,45,0.0,1.0,57,-99.99,,,-99.99,,2013-01-18 02:43:00,
2013-01-17 20:53:00,16.0,4.0,30.22,West,270,0.0,1.0,58,-99.99,,,-99.99,,2013-01-18 02:53:00,
2013-01-17 21:02:00,15.0,3.0,30.22,South,180,0.0,2.0,58,-99.99,,,-99.99,,2013-01-18 03:02:00,
2013-01-17 21:12:00,15.0,3.0,30.22,South,180,0.0,2.0,58,-99.99,,,-99.99,,2013-01-18 03:12:00,
2013-01-17 21:22:00,15.0,3.0,30.23,West,270,0.0,1.0,58,-99.99,,,-99.99,,2013-01-18 03:22:00,
2013-01-17 21:33:00,15.0,3.0,30.23,West,270,0.0,0.0,59,-99.99,,,-99.99,,2013-01-18 03:33:00,
2013-01-17 21:42:00,15.0,3.0,30.23,West,270,0.0,0.0,59,-99.99,,,-99.99,,2013-01-18 03:42:00,
2013-01-17 21:52:00,15.0,3.0,30.22,South,180,0.0,0.0,59,-99.99,,,-99.99,,2013-01-18 03:52:00,
2013-01-17 22:02:00,15.0,4.0,30.22,SW,225,0.0,0.0,60,-99.99,,,-99.99,,2013-01-18 04:02:00,
2013-01-17 22:12:00,15.0,4.0,30.22,SW,225,0.0,0.0,60,-99.99,,,-99.99,,2013-01-18 04:12:00,
2013-01-17 22:22:00,15.0,4.0,30.22,SW,225,0.0,0.0,60,-99.99,,,-99.99,,2013-01-18 04:22:00,
2013-01-17 22:32:00,15.0,4.0,30.22,NW,315,0.0,0.0,60,-99.99,,,-99.99,,2013-01-18 04:32:00,
2013-01-17 22:42:00,15.0,4.0,30.22,NW,315,0.0,0.0,60,-99.99,,,-99.99,,2013-01-18 04:42:00,
2013-01-17 22:53:00,15.0,4.0,30.22,NW,315,0.0,0.0,60,-99.99,,,-99.99,,2013-01-18 04:53:00,
2013-01-17 23:03:00,14.0,3.0,30.22,NNW,337,0.0,1.0,60,-99.99,,,-99.99,,2013-01-18 05:03:00,
2013-01-17 23:12:00,14.0,3.0,30.22,NNW,337,0.0,1.0,60,-99.99,,,-99.99,,2013-01-18 05:12:00,
2013-01-17 23:22:00,14.0,3.0,30.22,NNW,337,0.0,1.0,60,-99.99,,,-99.99,,2013-01-18 05:22:00,
2013-01-17 23:33:00,14.0,3.0,30.22,SE,135,0.0,0.0,61,-99.99,,,-99.99,,2013-01-18 05:33:00,
2013-01-17 23:42:00,14.0,3.0,30.22,SE,135,0.0,0.0,61,-99.99,,,-99.99,,2013-01-18 05:42:00,
2013-01-17 23:53:00,14.0,3.0,30.22,SW,225,0.0,0.0,61,-99.99,,,-99.99,,2013-01-18 05:53:00,